| time (UTC) | temp F | wind direction | speed MPH | gust MPH | rain 1hr in | rain 24hr in | rain mn in | humidity % | barometer mb |
| 20260509034601 | 40 | 0 | 0.0 | 0.0 | 0.00 | 0.00 | 0.00 | 77 | 1012.9 |
| 20260509034027 | 40 | 0 | 0.0 | 0.0 | 0.00 | 0.00 | 0.00 | 77 | 1013.0 |
| 20260509033525 | 40 | 0 | 0.0 | 0.0 | 0.00 | 0.00 | 0.00 | 76 | 1012.9 |
| 20260509033041 | 40 | 0 | 0.0 | 0.0 | 0.00 | 0.00 | 0.00 | 77 | 1012.9 |
| 20260509032524 | 40 | 0 | 0.0 | 0.0 | 0.00 | 0.00 | 0.00 | 76 | 1013.0 |
| 20260509032026 | 41 | 0 | 0.0 | 0.0 | 0.00 | 0.00 | 0.00 | 76 | 1012.8 |
| 20260509031540 | 41 | 0 | 0.0 | 0.0 | 0.00 | 0.00 | 0.00 | 75 | 1012.9 |
| 20260509031024 | 41 | 0 | 0.0 | 0.0 | 0.00 | 0.00 | 0.00 | 75 | 1012.9 |
| 20260509030526 | 41 | 0 | 0.0 | 0.0 | 0.00 | 0.00 | 0.00 | 73 | 1012.8 |
| 20260509030042 | 42 | 0 | 0.0 | 0.0 | 0.00 | 0.00 | 0.00 | 73 | 1012.8 |
| 20260509025524 | 42 | 0 | 0.0 | 0.0 | 0.00 | 0.00 | 0.00 | 73 | 1012.8 |
| 20260509025024 | 42 | 0 | 0.0 | 0.0 | 0.00 | 0.00 | 0.00 | 72 | 1012.8 |
| 20260509024543 | 42 | 0 | 0.0 | 0.0 | 0.00 | 0.00 | 0.00 | 71 | 1012.7 |
| 20260509024028 | 43 | 0 | 0.0 | 0.0 | 0.00 | 0.00 | 0.00 | 71 | 1012.7 |
| 20260509023526 | 43 | 0 | 0.0 | 0.0 | 0.00 | 0.00 | 0.00 | 70 | 1012.7 |
| 20260509023045 | 43 | 0 | 0.0 | 0.0 | 0.00 | 0.00 | 0.00 | 69 | 1012.6 |
| 20260509022525 | 43 | 0 | 0.0 | 0.0 | 0.00 | 0.00 | 0.00 | 68 | 1012.7 |
| 20260509022024 | 44 | 0 | 0.0 | 0.0 | 0.00 | 0.00 | 0.00 | 68 | 1012.7 |
| 20260509021541 | 44 | 0 | 0.0 | 0.0 | 0.00 | 0.00 | 0.00 | 67 | 1012.6 |
| 20260509021025 | 44 | 0 | 0.0 | 0.0 | 0.00 | 0.00 | 0.00 | 67 | 1012.4 |
| 20260509020526 | 45 | 0 | 0.0 | 0.0 | 0.00 | 0.00 | 0.00 | 66 | 1012.2 |
| 20260509020047 | 45 | 0 | 0.0 | 0.0 | 0.00 | 0.00 | 0.00 | 65 | 1012.1 |
| 20260509015526 | 45 | 0 | 0.0 | 0.0 | 0.00 | 0.00 | 0.00 | 64 | 1012.0 |
| 20260509015025 | 45 | 0 | 0.0 | 0.0 | 0.00 | 0.00 | 0.00 | 63 | 1012.0 |
| 20260509014538 | 45 | 0 | 0.0 | 0.0 | 0.00 | 0.00 | 0.00 | 63 | 1012.0 |
| 20260509014027 | 46 | 0 | 0.0 | 0.0 | 0.00 | 0.00 | 0.00 | 62 | 1012.0 |
| 20260509013524 | 46 | 0 | 0.0 | 0.0 | 0.00 | 0.00 | 0.00 | 62 | 1012.0 |
| 20260509013047 | 46 | 0 | 0.0 | 0.0 | 0.00 | 0.00 | 0.00 | 61 | 1011.8 |
| 20260509012527 | 46 | 0 | 0.0 | 0.0 | 0.00 | 0.00 | 0.00 | 59 | 1011.7 |
| 20260509012027 | 47 | 0 | 0.0 | 0.0 | 0.00 | 0.00 | 0.00 | 59 | 1011.7 |
| 20260509011541 | 47 | 0 | 0.0 | 0.0 | 0.00 | 0.00 | 0.00 | 58 | 1011.6 |
| 20260509011025 | 47 | 0 | 0.0 | 0.0 | 0.00 | 0.00 | 0.00 | 57 | 1011.5 |
| 20260509010527 | 48 | 0 | 0.0 | 0.0 | 0.00 | 0.00 | 0.00 | 55 | 1011.4 |
| 20260509010051 | 48 | 0 | 0.0 | 0.0 | 0.00 | 0.00 | 0.00 | 54 | 1011.4 |
| 20260509005526 | 48 | 0 | 0.0 | 0.0 | 0.00 | 0.00 | 0.00 | 53 | 1011.2 |
| 20260509005028 | 49 | 203 | 0.0 | 0.0 | 0.00 | 0.00 | 0.00 | 52 | 1011.1 |
| 20260509004537 | 49 | 0 | 0.0 | 0.0 | 0.00 | 0.00 | 0.00 | 51 | 1011.1 |
| 20260509004024 | 49 | 0 | 0.0 | 0.0 | 0.00 | 0.00 | 0.00 | 50 | 1010.9 |
| 20260509003526 | 50 | 0 | 0.0 | 0.0 | 0.00 | 0.00 | 0.00 | 49 | 1010.8 |
| 20260509003037 | 50 | 0 | 0.0 | 0.0 | 0.00 | 0.00 | 0.00 | 49 | 1010.7 |
| 20260509002524 | 50 | 0 | 0.0 | 0.0 | 0.00 | 0.00 | 0.00 | 48 | 1010.6 |
| 20260509002024 | 51 | 203 | 0.0 | 0.0 | 0.00 | 0.00 | 0.00 | 47 | 1010.4 |
| 20260509001543 | 52 | 0 | 0.0 | 1.0 | 0.00 | 0.00 | 0.00 | 45 | 1010.4 |
| 20260509001025 | 52 | 0 | 0.0 | 1.0 | 0.00 | 0.00 | 0.00 | 45 | 1010.4 |
| 20260509000529 | 53 | 326 | 0.0 | 6.0 | 0.00 | 0.00 | 0.00 | 43 | 1010.1 |
| 20260509000043 | 53 | 0 | 0.0 | 8.0 | 0.00 | 0.00 | 0.00 | 42 | 1010.1 |
| 20260508235527 | 53 | 318 | 1.0 | 8.0 | 0.00 | 0.00 | 0.00 | 41 | 1010.0 |
| 20260508235025 | 53 | 319 | 2.0 | 8.0 | 0.00 | 0.00 | 0.00 | 40 | 1010.0 |
| 20260508234540 | 54 | 318 | 0.0 | 9.0 | 0.00 | 0.00 | 0.00 | 40 | 1009.9 |
| 20260508234027 | 54 | 357 | 1.0 | 9.0 | 0.00 | 0.00 | 0.00 | 39 | 1009.9 |
| 20260508233530 | 54 | 39 | 1.0 | 8.0 | 0.00 | 0.00 | 0.00 | 40 | 1009.8 |
| 20260508233037 | 54 | 0 | 0.0 | 2.0 | 0.00 | 0.00 | 0.00 | 40 | 1009.6 |
| 20260508232524 | 54 | 30 | 0.0 | 5.0 | 0.00 | 0.00 | 0.00 | 39 | 1009.5 |
| 20260508232024 | 54 | 285 | 1.0 | 5.0 | 0.00 | 0.00 | 0.00 | 40 | 1009.5 |
| 20260508231548 | 54 | 348 | 0.0 | 2.0 | 0.00 | 0.00 | 0.00 | 40 | 1009.3 |
| 20260508231029 | 55 | 0 | 0.0 | 2.0 | 0.00 | 0.00 | 0.00 | 40 | 1009.3 |
| 20260508230524 | 55 | 6 | 0.0 | 3.0 | 0.00 | 0.00 | 0.00 | 40 | 1009.3 |
| 20260508230056 | 55 | 117 | 0.0 | 4.0 | 0.00 | 0.00 | 0.00 | 41 | 1009.1 |
| 20260508225524 | 55 | 117 | 1.0 | 4.0 | 0.00 | 0.00 | 0.00 | 41 | 1009.1 |
| 20260508225025 | 55 | 229 | 1.0 | 4.0 | 0.00 | 0.00 | 0.00 | 39 | 1009.1 |
| 20260508224546 | 56 | 238 | 1.0 | 5.0 | 0.00 | 0.00 | 0.00 | 39 | 1009.0 |
| 20260508224024 | 56 | 356 | 1.0 | 5.0 | 0.00 | 0.00 | 0.00 | 39 | 1009.0 |
| 20260508223524 | 56 | 44 | 1.0 | 5.0 | 0.00 | 0.00 | 0.00 | 39 | 1009.0 |
| 20260508223042 | 56 | 153 | 1.0 | 4.0 | 0.00 | 0.00 | 0.00 | 39 | 1009.0 |
| 20260508222528 | 56 | 0 | 1.0 | 3.0 | 0.00 | 0.00 | 0.00 | 39 | 1009.0 |
| 20260508222026 | 56 | 100 | 0.0 | 8.0 | 0.00 | 0.00 | 0.00 | 39 | 1009.0 |
| 20260508221545 | 56 | 91 | 0.0 | 8.0 | 0.00 | 0.00 | 0.00 | 40 | 1009.1 |
| 20260508221026 | 56 | 338 | 2.0 | 8.0 | 0.00 | 0.00 | 0.00 | 37 | 1008.9 |
| 20260508220525 | 57 | 71 | 2.0 | 7.0 | 0.00 | 0.00 | 0.00 | 36 | 1009.0 |
| 20260508220038 | 57 | 253 | 3.0 | 7.0 | 0.00 | 0.00 | 0.00 | 36 | 1008.9 |
| 20260508215524 | 58 | 335 | 2.0 | 7.0 | 0.00 | 0.00 | 0.00 | 35 | 1008.9 |
| 20260508215026 | 58 | 257 | 1.0 | 6.0 | 0.00 | 0.00 | 0.00 | 35 | 1008.8 |
| 20260508214544 | 58 | 20 | 1.0 | 5.0 | 0.00 | 0.00 | 0.00 | 37 | 1008.6 |
| 20260508214024 | 58 | 172 | 0.0 | 4.0 | 0.00 | 0.00 | 0.00 | 37 | 1008.7 |
| 20260508213526 | 58 | 158 | 1.0 | 5.0 | 0.00 | 0.00 | 0.00 | 37 | 1008.7 |
| 20260508213044 | 58 | 210 | 1.0 | 5.0 | 0.00 | 0.00 | 0.00 | 37 | 1008.7 |
| 20260508212527 | 58 | 0 | 1.0 | 5.0 | 0.00 | 0.00 | 0.00 | 35 | 1008.5 |
| 20260508212025 | 58 | 86 | 2.0 | 5.0 | 0.00 | 0.00 | 0.00 | 36 | 1008.7 |
| 20260508211542 | 58 | 27 | 0.0 | 5.0 | 0.00 | 0.00 | 0.00 | 36 | 1008.7 |
| 20260508211025 | 58 | 313 | 1.0 | 8.0 | 0.00 | 0.00 | 0.00 | 37 | 1008.7 |
| 20260508210526 | 59 | 0 | 2.0 | 8.0 | 0.00 | 0.00 | 0.00 | 35 | 1008.6 |
| 20260508210039 | 59 | 243 | 2.0 | 7.0 | 0.00 | 0.00 | 0.00 | 34 | 1008.4 |
| 20260508205525 | 59 | 239 | 2.0 | 7.0 | 0.00 | 0.00 | 0.00 | 37 | 1008.4 |
| 20260508205030 | 59 | 88 | 1.0 | 4.0 | 0.00 | 0.00 | 0.00 | 37 | 1008.4 |
| 20260508204548 | 59 | 89 | 1.0 | 4.0 | 0.00 | 0.00 | 0.00 | 35 | 1008.5 |
| 20260508204027 | 59 | 177 | 1.0 | 6.0 | 0.00 | 0.00 | 0.00 | 34 | 1008.4 |
| 20260508203527 | 59 | 296 | 1.0 | 9.0 | 0.00 | 0.00 | 0.00 | 38 | 1008.4 |
| 20260508203035 | 59 | 31 | 2.0 | 10.0 | 0.00 | 0.00 | 0.00 | 35 | 1008.5 |
| 20260508202526 | 59 | 295 | 2.0 | 10.0 | 0.00 | 0.00 | 0.00 | 37 | 1008.3 |
| 20260508202027 | 59 | 24 | 2.0 | 10.0 | 0.00 | 0.00 | 0.00 | 40 | 1008.5 |
| 20260508201546 | 59 | 124 | 1.0 | 5.0 | 0.00 | 0.00 | 0.00 | 39 | 1008.4 |
| 20260508201027 | 59 | 356 | 0.0 | 8.0 | 0.00 | 0.00 | 0.00 | 38 | 1008.4 |
| 20260508200527 | 59 | 284 | 2.0 | 8.0 | 0.00 | 0.00 | 0.00 | 37 | 1008.3 |
| 20260508200051 | 59 | 77 | 2.0 | 7.0 | 0.00 | 0.00 | 0.00 | 37 | 1008.4 |
| 20260508195526 | 59 | 132 | 1.0 | 12.0 | 0.00 | 0.00 | 0.00 | 37 | 1008.5 |
| 20260508195025 | 59 | 129 | 2.0 | 12.0 | 0.00 | 0.00 | 0.00 | 38 | 1008.4 |
| 20260508194539 | 60 | 328 | 3.0 | 10.0 | 0.00 | 0.00 | 0.00 | 37 | 1008.3 |
| 20260508194027 | 60 | 130 | 2.0 | 11.0 | 0.00 | 0.00 | 0.00 | 36 | 1008.5 |
| 20260508193531 | 60 | 114 | 3.0 | 11.0 | 0.00 | 0.00 | 0.00 | 38 | 1008.4 |
| 20260508193037 | 60 | 143 | 2.0 | 9.0 | 0.00 | 0.00 | 0.00 | 36 | 1008.4 |
| 20260508192530 | 61 | 80 | 2.0 | 8.0 | 0.00 | 0.00 | 0.00 | 35 | 1008.5 |
| 20260508192029 | 61 | 120 | 3.0 | 7.0 | 0.00 | 0.00 | 0.00 | 36 | 1008.3 |
| 20260508191534 | 60 | 224 | 2.0 | 11.0 | 0.00 | 0.00 | 0.00 | 34 | 1008.3 |
| 20260508191024 | 60 | 25 | 4.0 | 11.0 | 0.00 | 0.00 | 0.00 | 34 | 1008.5 |
| 20260508190524 | 61 | 158 | 3.0 | 9.0 | 0.00 | 0.00 | 0.00 | 34 | 1008.4 |
| 20260508190049 | 60 | 25 | 3.0 | 8.0 | 0.00 | 0.00 | 0.00 | 33 | 1008.5 |
| 20260508185530 | 61 | 270 | 2.0 | 8.0 | 0.00 | 0.00 | 0.00 | 37 | 1008.5 |
| 20260508185024 | 61 | 149 | 2.0 | 8.0 | 0.00 | 0.00 | 0.00 | 36 | 1008.4 |
| 20260508184543 | 61 | 131 | 2.0 | 9.0 | 0.00 | 0.00 | 0.00 | 36 | 1008.4 |
| 20260508184027 | 60 | 120 | 2.0 | 9.0 | 0.00 | 0.00 | 0.00 | 35 | 1008.3 |
| 20260508183523 | 60 | 274 | 1.0 | 5.0 | 0.00 | 0.00 | 0.00 | 34 | 1008.5 |
| 20260508183037 | 60 | 175 | 2.0 | 8.0 | 0.00 | 0.00 | 0.00 | 35 | 1008.4 |
| 20260508182529 | 60 | 2 | 3.0 | 8.0 | 0.00 | 0.00 | 0.00 | 35 | 1008.4 |
| 20260508182027 | 61 | 339 | 2.0 | 12.0 | 0.00 | 0.00 | 0.00 | 34 | 1008.3 |
| 20260508181537 | 60 | 248 | 1.0 | 12.0 | 0.00 | 0.00 | 0.00 | 36 | 1008.3 |
| 20260508181028 | 60 | 253 | 3.0 | 12.0 | 0.00 | 0.00 | 0.00 | 36 | 1008.4 |
| 20260508180529 | 60 | 60 | 1.0 | 8.0 | 0.00 | 0.00 | 0.00 | 38 | 1008.5 |
| 20260508180038 | 60 | 25 | 2.0 | 8.0 | 0.00 | 0.00 | 0.00 | 36 | 1008.4 |
| 20260508175524 | 59 | 32 | 1.0 | 6.0 | 0.00 | 0.00 | 0.00 | 39 | 1008.4 |
| 20260508175028 | 59 | 282 | 2.0 | 10.0 | 0.00 | 0.00 | 0.00 | 36 | 1008.4 |
| 20260508174539 | 60 | 151 | 2.0 | 10.0 | 0.00 | 0.00 | 0.00 | 36 | 1008.4 |
| 20260508174025 | 61 | 167 | 3.0 | 10.0 | 0.00 | 0.00 | 0.00 | 35 | 1008.4 |
| 20260508173525 | 61 | 269 | 2.0 | 13.0 | 0.00 | 0.00 | 0.00 | 36 | 1008.5 |
| 20260508173044 | 61 | 162 | 2.0 | 13.0 | 0.00 | 0.00 | 0.00 | 37 | 1008.5 |
| 20260508172526 | 61 | 222 | 3.0 | 8.0 | 0.00 | 0.00 | 0.00 | 35 | 1008.5 |
| 20260508172027 | 61 | 155 | 3.0 | 8.0 | 0.00 | 0.00 | 0.00 | 35 | 1008.5 |
| 20260508171539 | 60 | 228 | 2.0 | 7.0 | 0.00 | 0.00 | 0.00 | 38 | 1008.5 |
| 20260508171027 | 59 | 21 | 2.0 | 7.0 | 0.00 | 0.00 | 0.00 | 41 | 1008.4 |
| 20260508170523 | 59 | 195 | 1.0 | 7.0 | 0.00 | 0.00 | 0.00 | 39 | 1008.3 |
| 20260508170046 | 59 | 287 | 2.0 | 7.0 | 0.00 | 0.00 | 0.00 | 39 | 1008.3 |
| 20260508165527 | 58 | 140 | 1.0 | 7.0 | 0.00 | 0.00 | 0.00 | 39 | 1008.4 |
| 20260508165027 | 58 | 179 | 2.0 | 5.0 | 0.00 | 0.00 | 0.00 | 37 | 1008.6 |
| 20260508164538 | 59 | 193 | 1.0 | 11.0 | 0.00 | 0.00 | 0.00 | 37 | 1008.6 |
| 20260508164026 | 59 | 61 | 1.0 | 11.0 | 0.00 | 0.00 | 0.00 | 37 | 1008.5 |
| 20260508163527 | 61 | 309 | 2.0 | 11.0 | 0.00 | 0.00 | 0.00 | 35 | 1008.3 |
| 20260508163037 | 60 | 262 | 3.0 | 7.0 | 0.00 | 0.00 | 0.00 | 37 | 1008.3 |
| 20260508162525 | 60 | 205 | 3.0 | 7.0 | 0.00 | 0.00 | 0.00 | 37 | 1008.5 |
| 20260508162025 | 59 | 245 | 1.0 | 8.0 | 0.00 | 0.00 | 0.00 | 36 | 1008.4 |
| 20260508161543 | 59 | 219 | 3.0 | 12.0 | 0.00 | 0.00 | 0.00 | 42 | 1008.4 |
| 20260508161025 | 58 | 142 | 1.0 | 12.0 | 0.00 | 0.00 | 0.00 | 42 | 1008.5 |
| 20260508160524 | 59 | 125 | 3.0 | 10.0 | 0.00 | 0.00 | 0.00 | 39 | 1008.6 |
| 20260508160038 | 59 | 104 | 1.0 | 11.0 | 0.00 | 0.00 | 0.00 | 37 | 1008.6 |
| 20260508155527 | 60 | 277 | 2.0 | 11.0 | 0.00 | 0.00 | 0.00 | 41 | 1008.7 |
| 20260508155025 | 60 | 221 | 3.0 | 8.0 | 0.00 | 0.00 | 0.00 | 36 | 1008.8 |
| 20260508154536 | 60 | 80 | 2.0 | 8.0 | 0.00 | 0.00 | 0.00 | 43 | 1008.8 |
| 20260508154025 | 59 | 308 | 1.0 | 8.0 | 0.00 | 0.00 | 0.00 | 38 | 1008.8 |
| 20260508153526 | 60 | 198 | 2.0 | 8.0 | 0.00 | 0.00 | 0.00 | 39 | 1008.8 |
| 20260508153037 | 59 | 167 | 1.0 | 8.0 | 0.00 | 0.00 | 0.00 | 38 | 1008.8 |
| 20260508152524 | 59 | 23 | 2.0 | 8.0 | 0.00 | 0.00 | 0.00 | 40 | 1009.0 |
| 20260508152027 | 59 | 22 | 3.0 | 9.0 | 0.00 | 0.00 | 0.00 | 39 | 1009.0 |
| 20260508151534 | 59 | 163 | 1.0 | 9.0 | 0.00 | 0.00 | 0.00 | 41 | 1009.0 |
| 20260508151026 | 58 | 162 | 2.0 | 9.0 | 0.00 | 0.00 | 0.00 | 41 | 1009.1 |
| 20260508150527 | 58 | 24 | 2.0 | 7.0 | 0.00 | 0.00 | 0.00 | 38 | 1008.9 |
| 20260508150044 | 58 | 4 | 2.0 | 5.0 | 0.00 | 0.00 | 0.00 | 38 | 1009.0 |
| 20260508145529 | 58 | 32 | 1.0 | 9.0 | 0.00 | 0.00 | 0.00 | 39 | 1009.0 |
| 20260508145027 | 58 | 0 | 2.0 | 9.0 | 0.00 | 0.00 | 0.00 | 42 | 1009.0 |
| 20260508144540 | 58 | 212 | 1.0 | 6.0 | 0.00 | 0.00 | 0.00 | 39 | 1009.1 |
| 20260508144027 | 58 | 145 | 1.0 | 6.0 | 0.00 | 0.00 | 0.00 | 40 | 1009.0 |
| 20260508143527 | 57 | 320 | 1.0 | 6.0 | 0.00 | 0.00 | 0.00 | 38 | 1009.1 |
| 20260508143036 | 57 | 60 | 1.0 | 6.0 | 0.00 | 0.00 | 0.00 | 39 | 1009.2 |
| 20260508142524 | 57 | 155 | 1.0 | 6.0 | 0.00 | 0.00 | 0.00 | 39 | 1009.1 |
| 20260508142026 | 57 | 265 | 2.0 | 7.0 | 0.00 | 0.00 | 0.00 | 39 | 1009.2 |
| 20260508141538 | 57 | 212 | 1.0 | 7.0 | 0.00 | 0.00 | 0.00 | 40 | 1009.3 |
| 20260508141029 | 57 | 336 | 1.0 | 5.0 | 0.00 | 0.00 | 0.00 | 39 | 1009.3 |
| 20260508140525 | 57 | 79 | 1.0 | 5.0 | 0.00 | 0.00 | 0.00 | 40 | 1009.3 |
| 20260508140040 | 57 | 302 | 1.0 | 3.0 | 0.00 | 0.00 | 0.00 | 41 | 1009.2 |
| 20260508135528 | 56 | 357 | 1.0 | 6.0 | 0.00 | 0.00 | 0.00 | 38 | 1009.4 |
| 20260508135028 | 56 | 285 | 1.0 | 6.0 | 0.00 | 0.00 | 0.00 | 41 | 1009.3 |
| 20260508134538 | 56 | 208 | 2.0 | 13.0 | 0.00 | 0.00 | 0.00 | 40 | 1009.4 |
| 20260508134025 | 57 | 11 | 3.0 | 13.0 | 0.00 | 0.00 | 0.00 | 38 | 1009.5 |
| 20260508133528 | 58 | 5 | 2.0 | 4.0 | 0.00 | 0.00 | 0.00 | 43 | 1009.4 |
| 20260508133040 | 57 | 195 | 2.0 | 8.0 | 0.00 | 0.00 | 0.00 | 43 | 1009.3 |
| 20260508132527 | 56 | 214 | 1.0 | 8.0 | 0.00 | 0.00 | 0.00 | 44 | 1009.5 |
| 20260508132027 | 56 | 6 | 4.0 | 12.0 | 0.00 | 0.00 | 0.00 | 41 | 1009.4 |
| 20260508131539 | 55 | 265 | 2.0 | 12.0 | 0.00 | 0.00 | 0.00 | 45 | 1009.4 |
| 20260508131028 | 55 | 50 | 3.0 | 12.0 | 0.00 | 0.00 | 0.00 | 41 | 1009.5 |
| 20260508130526 | 55 | 145 | 2.0 | 6.0 | 0.00 | 0.00 | 0.00 | 41 | 1009.6 |
| 20260508130056 | 55 | 32 | 3.0 | 6.0 | 0.00 | 0.00 | 0.00 | 45 | 1009.7 |
| 20260508125526 | 55 | 49 | 2.0 | 6.0 | 0.00 | 0.00 | 0.00 | 45 | 1009.7 |
| 20260508125027 | 55 | 349 | 1.0 | 6.0 | 0.00 | 0.00 | 0.00 | 45 | 1009.6 |
| 20260508124535 | 55 | 207 | 2.0 | 6.0 | 0.00 | 0.00 | 0.00 | 42 | 1009.5 |
| 20260508124026 | 55 | 224 | 1.0 | 6.0 | 0.00 | 0.00 | 0.00 | 42 | 1009.5 |
| 20260508123524 | 55 | 87 | 1.0 | 4.0 | 0.00 | 0.00 | 0.00 | 47 | 1009.6 |
| 20260508123043 | 54 | 43 | 1.0 | 4.0 | 0.00 | 0.00 | 0.00 | 47 | 1009.5 |
| 20260508122527 | 54 | 165 | 1.0 | 3.0 | 0.00 | 0.00 | 0.00 | 45 | 1009.6 |
| 20260508122025 | 54 | 30 | 0.0 | 6.0 | 0.00 | 0.00 | 0.00 | 48 | 1009.6 |
| 20260508121554 | 53 | 333 | 0.0 | 6.0 | 0.00 | 0.00 | 0.00 | 47 | 1009.6 |
| 20260508121027 | 53 | 135 | 1.0 | 5.0 | 0.00 | 0.00 | 0.00 | 48 | 1009.7 |
| 20260508120526 | 53 | 62 | 2.0 | 5.0 | 0.00 | 0.00 | 0.00 | 46 | 1009.7 |
| 20260508120038 | 53 | 23 | 0.0 | 3.0 | 0.00 | 0.00 | 0.00 | 46 | 1009.7 |
| 20260508115524 | 53 | 94 | 0.0 | 3.0 | 0.00 | 0.00 | 0.00 | 48 | 1009.7 |
| 20260508115026 | 52 | 342 | 0.0 | 3.0 | 0.00 | 0.00 | 0.00 | 50 | 1009.7 |
| 20260508114538 | 51 | 255 | 1.0 | 3.0 | 0.00 | 0.00 | 0.00 | 52 | 1009.7 |
| 20260508114027 | 51 | 207 | 0.0 | 3.0 | 0.00 | 0.00 | 0.00 | 51 | 1009.6 |
| 20260508113526 | 51 | 114 | 0.0 | 3.0 | 0.00 | 0.00 | 0.00 | 55 | 1009.6 |
| 20260508113041 | 50 | 0 | 1.0 | 3.0 | 0.00 | 0.00 | 0.00 | 55 | 1009.5 |
| 20260508112527 | 49 | 239 | 1.0 | 3.0 | 0.00 | 0.00 | 0.00 | 53 | 1009.5 |
| 20260508112027 | 49 | 29 | 1.0 | 4.0 | 0.00 | 0.00 | 0.00 | 55 | 1009.5 |
| 20260508111534 | 48 | 150 | 1.0 | 4.0 | 0.00 | 0.00 | 0.00 | 56 | 1009.4 |
| 20260508111026 | 47 | 0 | 1.0 | 5.0 | 0.00 | 0.00 | 0.00 | 59 | 1009.5 |
| 20260508110526 | 46 | 263 | 0.0 | 5.0 | 0.00 | 0.00 | 0.00 | 60 | 1009.4 |
| 20260508110037 | 45 | 118 | 1.0 | 5.0 | 0.00 | 0.00 | 0.00 | 63 | 1009.4 |
| 20260508105530 | 44 | 0 | 0.0 | 1.0 | 0.00 | 0.00 | 0.00 | 66 | 1009.5 |
| 20260508105026 | 42 | 127 | 0.0 | 1.0 | 0.00 | 0.00 | 0.00 | 71 | 1009.3 |
| 20260508104603 | 40 | 0 | 0.0 | 0.0 | 0.00 | 0.00 | 0.00 | 74 | 1009.3 |
| 20260508104025 | 39 | 0 | 0.0 | 0.0 | 0.00 | 0.00 | 0.00 | 76 | 1009.2 |
| 20260508103525 | 39 | 0 | 0.0 | 0.0 | 0.00 | 0.00 | 0.00 | 77 | 1009.1 |
| 20260508103115 | 38 | 0 | 0.0 | 0.0 | 0.00 | 0.00 | 0.00 | 77 | 1009.2 |
| 20260508102525 | 38 | 0 | 0.0 | 0.0 | 0.00 | 0.00 | 0.00 | 78 | 1009.1 |
| 20260508102027 | 38 | 0 | 0.0 | 0.0 | 0.00 | 0.00 | 0.00 | 78 | 1009.0 |
| 20260508101535 | 38 | 0 | 0.0 | 0.0 | 0.00 | 0.00 | 0.00 | 78 | 1008.9 |
| 20260508101025 | 38 | 0 | 0.0 | 0.0 | 0.00 | 0.00 | 0.00 | 78 | 1008.9 |
| 20260508100527 | 38 | 0 | 0.0 | 0.0 | 0.00 | 0.00 | 0.00 | 79 | 1008.8 |
| 20260508100034 | 38 | 0 | 0.0 | 0.0 | 0.00 | 0.00 | 0.00 | 79 | 1008.7 |
| 20260508095527 | 37 | 0 | 0.0 | 0.0 | 0.00 | 0.00 | 0.00 | 80 | 1008.8 |
| 20260508095027 | 37 | 0 | 0.0 | 0.0 | 0.00 | 0.00 | 0.00 | 82 | 1008.7 |
| 20260508094544 | 36 | 0 | 0.0 | 0.0 | 0.00 | 0.00 | 0.00 | 83 | 1008.8 |
| 20260508094025 | 36 | 0 | 0.0 | 0.0 | 0.00 | 0.00 | 0.00 | 83 | 1008.7 |
| 20260508093525 | 36 | 0 | 0.0 | 0.0 | 0.00 | 0.00 | 0.00 | 84 | 1008.7 |
| 20260508093038 | 36 | 0 | 0.0 | 0.0 | 0.00 | 0.00 | 0.00 | 84 | 1008.7 |
| 20260508092525 | 36 | 0 | 0.0 | 0.0 | 0.00 | 0.00 | 0.00 | 84 | 1008.7 |
| 20260508092024 | 36 | 0 | 0.0 | 0.0 | 0.00 | 0.00 | 0.00 | 84 | 1008.6 |
| 20260508091539 | 36 | 0 | 0.0 | 0.0 | 0.00 | 0.00 | 0.00 | 84 | 1008.5 |
| 20260508091027 | 36 | 0 | 0.0 | 0.0 | 0.00 | 0.00 | 0.00 | 83 | 1008.5 |
| 20260508090525 | 36 | 0 | 0.0 | 0.0 | 0.00 | 0.00 | 0.00 | 83 | 1008.5 |
| 20260508090047 | 36 | 0 | 0.0 | 0.0 | 0.00 | 0.00 | 0.00 | 83 | 1008.4 |
| 20260508085525 | 36 | 0 | 0.0 | 0.0 | 0.00 | 0.00 | 0.00 | 83 | 1008.5 |
| 20260508085025 | 36 | 0 | 0.0 | 0.0 | 0.00 | 0.00 | 0.00 | 82 | 1008.3 |
| 20260508084535 | 36 | 0 | 0.0 | 0.0 | 0.00 | 0.00 | 0.00 | 81 | 1008.4 |
| 20260508084025 | 36 | 0 | 0.0 | 0.0 | 0.00 | 0.00 | 0.00 | 81 | 1008.5 |
| 20260508083528 | 36 | 0 | 0.0 | 0.0 | 0.00 | 0.00 | 0.00 | 81 | 1008.4 |
| 20260508083102 | 36 | 0 | 0.0 | 0.0 | 0.00 | 0.00 | 0.00 | 80 | 1008.4 |
| 20260508082524 | 36 | 0 | 0.0 | 0.0 | 0.00 | 0.00 | 0.00 | 80 | 1008.3 |
| 20260508082024 | 36 | 0 | 0.0 | 0.0 | 0.00 | 0.00 | 0.00 | 80 | 1008.2 |
| 20260508081554 | 36 | 0 | 0.0 | 0.0 | 0.00 | 0.00 | 0.00 | 80 | 1008.1 |
| 20260508081027 | 36 | 0 | 0.0 | 0.0 | 0.00 | 0.00 | 0.00 | 79 | 1008.1 |
| 20260508080526 | 37 | 0 | 0.0 | 0.0 | 0.00 | 0.00 | 0.00 | 80 | 1008.1 |
| 20260508080036 | 37 | 0 | 0.0 | 0.0 | 0.00 | 0.00 | 0.00 | 79 | 1008.0 |
| 20260508075528 | 37 | 0 | 0.0 | 0.0 | 0.00 | 0.02 | 0.00 | 78 | 1007.9 |
| 20260508075028 | 37 | 0 | 0.0 | 0.0 | 0.00 | 0.02 | 0.00 | 78 | 1007.7 |
| 20260508074536 | 37 | 0 | 0.0 | 0.0 | 0.00 | 0.02 | 0.00 | 77 | 1007.6 |
| 20260508074028 | 38 | 0 | 0.0 | 0.0 | 0.00 | 0.02 | 0.00 | 77 | 1007.6 |
| 20260508073525 | 38 | 0 | 0.0 | 0.0 | 0.00 | 0.02 | 0.00 | 76 | 1007.6 |
| 20260508073039 | 38 | 0 | 0.0 | 0.0 | 0.00 | 0.02 | 0.00 | 77 | 1007.4 |
| 20260508072527 | 38 | 0 | 0.0 | 0.0 | 0.00 | 0.02 | 0.00 | 76 | 1007.4 |
| 20260508072024 | 38 | 0 | 0.0 | 0.0 | 0.00 | 0.02 | 0.00 | 76 | 1007.3 |
| 20260508071541 | 39 | 0 | 0.0 | 0.0 | 0.00 | 0.02 | 0.00 | 76 | 1007.2 |
| 20260508071027 | 39 | 0 | 0.0 | 0.0 | 0.00 | 0.02 | 0.00 | 76 | 1007.2 |
| 20260508070532 | 39 | 0 | 0.0 | 0.0 | 0.00 | 0.02 | 0.00 | 76 | 1007.2 |
| 20260508070136 | 39 | 0 | 0.0 | 0.0 | 0.00 | 0.02 | 0.00 | 76 | 1007.2 |
| 20260508065527 | 39 | 0 | 0.0 | 0.0 | 0.00 | 0.02 | 0.00 | 76 | 1007.3 |
| 20260508065024 | 39 | 0 | 0.0 | 0.0 | 0.00 | 0.02 | 0.00 | 74 | 1007.3 |
| 20260508064543 | 39 | 0 | 0.0 | 0.0 | 0.00 | 0.02 | 0.00 | 73 | 1007.3 |
| 20260508064028 | 40 | 0 | 0.0 | 0.0 | 0.00 | 0.02 | 0.00 | 73 | 1007.4 |
| 20260508063528 | 40 | 0 | 0.0 | 1.0 | 0.00 | 0.02 | 0.00 | 74 | 1007.3 |
| 20260508063046 | 40 | 0 | 0.0 | 1.0 | 0.00 | 0.02 | 0.00 | 74 | 1007.4 |
| 20260508062528 | 40 | 0 | 0.0 | 0.0 | 0.00 | 0.02 | 0.00 | 74 | 1007.2 |
| 20260508062027 | 40 | 0 | 0.0 | 0.0 | 0.00 | 0.02 | 0.00 | 74 | 1007.3 |
| 20260508061548 | 40 | 0 | 0.0 | 0.0 | 0.00 | 0.02 | 0.00 | 74 | 1007.3 |
| 20260508061024 | 40 | 0 | 0.0 | 0.0 | 0.00 | 0.02 | 0.00 | 74 | 1007.3 |
| 20260508060529 | 40 | 0 | 0.0 | 0.0 | 0.00 | 0.02 | 0.00 | 74 | 1007.3 |
| 20260508060044 | 40 | 0 | 0.0 | 0.0 | 0.00 | 0.02 | 0.00 | 73 | 1007.3 |
| 20260508055527 | 41 | 0 | 0.0 | 0.0 | 0.00 | 0.02 | 0.00 | 73 | 1007.4 |
| 20260508055028 | 41 | 0 | 0.0 | 0.0 | 0.00 | 0.02 | 0.00 | 72 | 1007.5 |
| 20260508054543 | 41 | 0 | 0.0 | 0.0 | 0.00 | 0.02 | 0.00 | 72 | 1007.6 |
| 20260508054029 | 41 | 0 | 0.0 | 0.0 | 0.00 | 0.02 | 0.00 | 72 | 1007.5 |
| 20260508053524 | 41 | 0 | 0.0 | 0.0 | 0.00 | 0.02 | 0.00 | 72 | 1007.6 |
| 20260508053038 | 41 | 0 | 0.0 | 0.0 | 0.00 | 0.02 | 0.00 | 72 | 1007.6 |
| 20260508052528 | 42 | 0 | 0.0 | 1.0 | 0.00 | 0.02 | 0.00 | 71 | 1007.7 |
| 20260508052029 | 42 | 0 | 0.0 | 1.0 | 0.00 | 0.02 | 0.00 | 72 | 1007.7 |
| 20260508051538 | 42 | 0 | 0.0 | 0.0 | 0.00 | 0.02 | 0.00 | 71 | 1007.7 |
| 20260508051028 | 42 | 0 | 0.0 | 1.0 | 0.00 | 0.02 | 0.00 | 71 | 1007.9 |
| 20260508050529 | 42 | 0 | 0.0 | 1.0 | 0.00 | 0.02 | 0.00 | 70 | 1007.9 |
| 20260508050039 | 42 | 0 | 0.0 | 1.0 | 0.00 | 0.02 | 0.00 | 69 | 1008.0 |
| 20260508045529 | 42 | 0 | 0.0 | 1.0 | 0.00 | 0.03 | 0.00 | 68 | 1008.0 |
| 20260508045027 | 43 | 0 | 0.0 | 1.0 | 0.00 | 0.03 | 0.00 | 67 | 1008.0 |
| 20260508044535 | 43 | 0 | 0.0 | 1.0 | 0.00 | 0.03 | 0.00 | 66 | 1008.0 |
| 20260508044027 | 43 | 0 | 0.0 | 0.0 | 0.00 | 0.03 | 0.00 | 65 | 1008.1 |
| 20260508043526 | 43 | 0 | 0.0 | 0.0 | 0.00 | 0.03 | 0.00 | 64 | 1008.0 |
| 20260508043056 | 44 | 0 | 0.0 | 0.0 | 0.00 | 0.03 | 0.00 | 63 | 1008.1 |
| 20260508042528 | 44 | 0 | 0.0 | 0.0 | 0.00 | 0.03 | 0.00 | 63 | 1008.2 |
| 20260508042026 | 44 | 0 | 0.0 | 0.0 | 0.00 | 0.03 | 0.00 | 63 | 1008.2 |
| 20260508041537 | 44 | 0 | 0.0 | 0.0 | 0.00 | 0.03 | 0.00 | 62 | 1008.2 |
| 20260508041028 | 45 | 0 | 0.0 | 1.0 | 0.00 | 0.03 | 0.00 | 60 | 1008.2 |
| 20260508040529 | 45 | 0 | 0.0 | 1.0 | 0.00 | 0.03 | 0.00 | 59 | 1008.2 |
| 20260508040043 | 45 | 0 | 0.0 | 1.0 | 0.00 | 0.03 | 0.00 | 59 | 1008.1 |
| 20260508035527 | 45 | 0 | 0.0 | 0.0 | 0.00 | 0.04 | 0.03 | 59 | 1008.1 |
| 20260508035029 | 45 | 0 | 0.0 | 0.0 | 0.00 | 0.04 | 0.03 | 58 | 1008.0 |